Zurück zum Katalog

STARLINK-1555

AktivKommunikationVLEO
NORAD 46032·PAYLOAD·🇺🇸 United States

Gestartet Aug 7, 2020 von Cape Canaveral Space Force Station

Loading…

Nächste Überflüge (nächste 24 Stunden)

TLE

AktuellSource: CelesTrak SupGP

Epoche: Sep 14, 2026, 13:02 UTC

1 46032C 20055F   26257.54354167  .00014346  00000+0  46135-3 0  2570
2 46032  53.1584 328.5496 0001304  76.1972 168.1647 15.31692398    11

Verfolge STARLINK-1555 in Echtzeit mit AllMySat

Download on the App Store